Miscellaneous Local Product
Issued by NWS Hastings, NE

Home | Current Version | Previous Version | Graphics & Text | Print | Product List | Glossary On
Versions: 1 2 3 4 5 6 7 8 9 10 11 12 13 14 15 16 17 18 19 20 21 22 23 24 25 26 27 28 29 30 31 32 33 34 35 36 37 38 39 40 41 42 43 44 45 46 47 48 49 50
000
AXUS43 KGID 291302
MISGRI

GID CWA HOURLY WEATHER ROUNDUP
NATIONAL WEATHER SERVICE HASTINGS NE
800 AM CDT SAT APR 29 2017

NOTE: "FAIR" INDICATES FEW OR NO CLOUDS BELOW 12,000 FEET WITH NO
SIGNIFICANT WEATHER AND/OR OBSTRUCTIONS TO VISIBILITY.

...SOUTH CENTRAL NEBRASKA...

CITY           SKY/WX    TMP DP  RH WIND       PRES   REMARKS
GRAND ISLAND   CLOUDY    39  36  89 N14       30.14R WCI  31
HASTINGS       CLOUDY    40  34  79 N17       30.12R WCI  31
KEARNEY        CLOUDY    39  30  70 NE14      30.13F WCI  31
ORD            CLOUDY    39  27  62 NE12      30.18R WCI  32
YORK           LGT RAIN  39  37  93 NE16      30.09F WCI  30
AURORA         CLOUDY    40  36  84 NE17G24   30.10R WCI  31
LEXINGTON      CLOUDY    40  29  66 NE16G26   30.14F WCI  31
HOLDREGE       DRIZZLE   37  33  85 NE21      30.11F WCI  27
HEBRON         RAIN      40  37  90 NE13      30.04F WCI  32

...NEBRASKA PANHANDLE...

CITY           SKY/WX    TMP DP  RH WIND       PRES   REMARKS
CHADRON        CLOUDY    31  29  92 SW6       30.26R WCI  25
ALLIANCE       CLOUDY    32  28  85 N8        30.20R WCI  25
SCOTTSBLUFF    CLOUDY    33  26  75 N10       30.21R WCI  25
SIDNEY         CLOUDY    33  29  85 N10       30.19R WCI  25

...WESTERN AND NORTH CENTRAL NEBRASKA...

CITY           SKY/WX    TMP DP  RH WIND       PRES   REMARKS
VALENTINE      CLOUDY    40  20  44 NE8       30.24R WCI  34
AINSWORTH      CLOUDY    37  26  63 NE8       30.22R WCI  31
ONEILL         CLOUDY    38  25  57 NE9       30.21S WCI  32
BROKEN BOW     CLOUDY    39  27  62 NE12      30.19R WCI  32
IMPERIAL       CLOUDY    37  29  72 NE15      30.14R WCI  28
NORTH PLATTE   CLOUDY    38  28  67 NE13      30.17R WCI  30
MCCOOK         MIX PCPN  35  34  96 NE18      30.12F FOG     WCI  24

...EASTERN NEBRASKA...

CITY           SKY/WX    TMP DP  RH WIND       PRES   REMARKS
NORFOLK        PTSUNNY   39  28  64 N10       30.17R WCI  32
SO SIOUX CITY  PTSUNNY   42  31  64 NE12      30.20R
TEKAMAH        PTSUNNY   42  33  70 NE14      30.15R
COLUMBUS       CLOUDY    39  34  81 N15G21    30.14R WCI  31
ALBION         PTSUNNY   40  29  65 N8        30.18S WCI  35
OMAHA EPPLEY   LGT RAIN  44  34  67 NE13G20   30.10F
OFFUTT AFB     CLOUDY    43  35  72 NE13G20   30.09R
MILLARD        CLOUDY    45  36  70 NE5       30.11R
LINCOLN        LGT RAIN  41  37  86 N12       30.10R
NEBRASKA CITY  CLOUDY    43  34  71 NE18G28   30.04R
BEATRICE       LGT RAIN  41  38  89 NE13G20   30.04F
FALLS CITY     CLOUDY    44  39  82 NE12G22   29.98F

...NORTHERN KANSAS...

CITY           SKY/WX    TMP DP  RH WIND       PRES   REMARKS
GOODLAND       SNOW      32  32 100 N17G26    30.06R VSB 1/2 WCI  21
HILL CITY      LGT SNOW  35  34  96 N16       30.00F FOG     WCI  25
NORTON         LGT RAIN  34  30  86 N17       30.05F WCI  23
PHILLIPSBURG   LGT RAIN  39  39 100 N14G21    30.03F WCI  31
SMITH CENTER   RAIN      37  36  93 N16G24    30.04S WCI  28
HAYS           LGT RAIN  39  37  92 N18G25    29.95F WCI  30
RUSSELL        LGT RAIN  40  38  93 N13       29.94F WCI  32
CONCORDIA      LGT RAIN  40  40 100 NE15G21   29.98F FOG     WCI  32
SALINA         LGT RAIN  44  41  89 NE16G26   29.93F
TOPEKA         LGT RAIN  45  45 100 N14G21    29.91R



USA.gov is the U.S. government's official web portal to all federal, state and local government web resources and services.